Regional Weather Roundup
Issued by NWS

Home | Current Version | Previous Version | Text Only | Print | Product List | Glossary On
Versions: 1 2 3 4 5 6 7 8 9 10 11 12 13 14 15 16 17 18 19 20 21 22 23 24 25 26 27 28 29 30 31 32 33 34 35 36 37 38 39 40 41 42 43 44 45 46 47 48 49 50
000
ASUS45 KREV 280510
RWRNV
NEVADA REGIONAL WEATHER ROUNDUP
NATIONAL WEATHER SERVICE RENO NV
900 PM PST FRI FEB 27 2015

NOTE: "FAIR" INDICATES FEW OR NO CLOUDS BELOW 12,000 FEET WITH NO
SIGNIFICANT WEATHER AND/OR OBSTRUCTIONS TO VISIBILITY.

NVZ001-003-004-280600-
WESTERN NEVADA

CITY           SKY/WX    TMP DP  RH WIND       PRES   REMARKS
RENO           MOCLDY    39  31  72 N13       29.63S
CARSON CITY    FAIR      36  32  87 N7        29.65S
MINDEN         MOCLDY    32  32 100 NE5       29.66
SLIDE MTN        N/A     19  16  86 NW22        N/A
PYRAMID LAKE     N/A     34 N/A N/A CALM        N/A
FALLON         MOCLDY    38  31  76 CALM      29.64R
LOVELOCK       CLOUDY    40  34  79 NE12      29.64R
HAWTHORNE      MOCLDY    45  32  61 W7        29.64R
$$

NVZ002-CAZ072-073-280600-
NORTHERN AND CENTRAL SIERRA

CITY           SKY/WX    TMP DP  RH WIND       PRES   REMARKS
S. LAKE TAHOE  CLOUDY    32  27  81 CALM      29.64S
TRUCKEE        MOCLDY    27  27 100 SE6       29.64S
SQUAW VLY 8000   N/A     27  27 100 SW5         N/A
SUSANVILLE     LGT RAIN  37  34  87 CALM      29.67R
BLUE CANYON    LGT SNOW  32  30  92 NW9       29.67R VSB 3/4
MAMMOTH LAKES  FAIR      34   9  35 SW17G26   29.65R
BRIDGEPORT     LGT SNOW  30  25  81 CALM      29.62S
$$

NVZ030-031-036-280600-
NORTHERN NEVADA

CITY           SKY/WX    TMP DP  RH WIND       PRES   REMARKS
ELKO           LGT SNOW  34  31  88 SW3       29.62R FOG
WINNEMUCCA     MOCLDY    32  31  96 CALM      29.64R
WENDOVER       MOCLDY    37  27  65 N21       29.68R
$$

NVZ035-037-280600-
CENTRAL NEVADA

CITY           SKY/WX    TMP DP  RH WIND       PRES   REMARKS
ELY            CLOUDY    30  25  81 CALM      29.63R
EUREKA           N/A     31  29  92 CALM      29.62S
$$

NVZ013-014-280600-
SOUTH CENTRAL NEVADA

CITY           SKY/WX    TMP DP  RH WIND       PRES   REMARKS
TONOPAH        CLOUDY    37  33  85 E3        29.63S
$$

NVZ017-020-022-280600-
SOUTHERN NEVADA

CITY           SKY/WX    TMP DP  RH WIND       PRES   REMARKS
LAS VEGAS      PTCLDY    60  37  42 S15G24    29.52S
N. LAS VEGAS   PTCLDY    56  26  31 E9        29.54F
NELLIS AFB     PTCLDY    58  29  33 NE5       29.55S
HENDERSON      PTCLDY    57  38  48 SW17      29.58S
MERCURY        MOCLDY    54  26  34 CALM      29.54S
$$


USA.gov is the U.S. government's official web portal to all federal, state and local government web resources and services.